North Bennington, VT

9:41 PM EDT on September 30, 2016 (GMT -0400)
Morse State

Weather History for KDDH - July, 2014

Change the Weather History Date:

Saturday, July 12, 2014

  Actual Average Record
Temperature  
Mean Temperature 67 °F 68 °F  
Max Temperature 84 °F 80 °F 89 °F (2012)
Min Temperature 50 °F 57 °F 43 °F (2002)
Degree Days  
Heating Degree Days 0 1  
Month to date heating degree days 2 12  
Since 1 June heating degree days 49 109  
Since 1 July heating degree days 2 12  
Cooling Degree Days 2 4  
Month to date cooling degree days 60 47  
Year to date cooling degree days 138 119  
Since 1 June cooling degree days 122 105  
Growing Degree Days 18 (Base 50)    
Moisture  
Dew Point 58 °F    
Average Humidity 72    
Maximum Humidity 96    
Minimum Humidity 47    
Precipitation  
Precipitation 0.00 in 0.14 in 1.02 in (2006)
Month to date precipitation 3.77 1.63  
Year to date precipitation 19.93 20.83  
Sea Level Pressure  
Sea Level Pressure 30.17 in    
Wind  
Wind Speed 3 mph (SSW)    
Max Wind Speed 12 mph    
Max Gust Speed 15 mph    
Visibility 10 miles    
Events      
T = Trace of Precipitation, MM = Missing Value Source: NWS Daily Summary

Daily Weather History Graph

Daily Weather History Graph

Search for Another Location

Airport or City:

Trip Planner

Search our weather history database for the weather conditions in past years. The results will help you decide how hot, cold, wet, or windy it might be!

Date:

Astronomy

Jul. 12, 2014 Rise Set
Actual Time 5:25 AM EDT 8:31 PM EDT
Civil Twilight 4:51 AM EDT 9:05 PM EDT
Nautical Twilight 4:07 AM EDT 9:49 PM EDT
Astronomical Twilight 3:14 AM EDT 10:41 PM EDT
Moon 8:28 PM EDT (7/12) 5:43 AM EDT (7/12)
Length of Visible Light 16h 14m
Length of Day
15h 06m
Full, 100% of the Moon is Illuminated
Jul 12
Full
Jul 18
Last Quarter
Jul 26
New
Aug 3
First Quarter
Aug 10
Full

Hourly Weather History & Observations

Time (EDT) Temp. Heat Index Dew Point Humidity Pressure Visibility Wind Dir Wind Speed Gust Speed Precip Events Conditions
12:54 AM 55.0 °F - 52.0 °F 89% 30.24 in 10.0 mi Calm Calm - N/A   Clear
1:54 AM 53.1 °F - 51.1 °F 93% 30.23 in 10.0 mi Calm Calm - N/A   Clear
2:54 AM 53.1 °F - 51.1 °F 93% 30.23 in 10.0 mi Calm Calm - N/A   Clear
3:54 AM 51.1 °F - 50.0 °F 96% 30.22 in 7.0 mi Calm Calm - N/A   Clear
4:54 AM 51.1 °F - 48.9 °F 92% 30.23 in 10.0 mi Calm Calm - N/A   Clear
5:54 AM 51.1 °F - 50.0 °F 96% 30.23 in 7.0 mi Calm Calm - N/A   Clear
6:54 AM 57.0 °F - 54.0 °F 89% 30.22 in 10.0 mi Calm Calm - N/A   Partly Cloudy
7:54 AM 63.0 °F - 55.9 °F 78% 30.23 in 10.0 mi Calm Calm - N/A   Clear
8:54 AM 69.1 °F - 59.0 °F 70% 30.22 in 10.0 mi Calm Calm - N/A   Partly Cloudy
9:54 AM 73.9 °F - 60.1 °F 62% 30.21 in 10.0 mi Calm Calm - N/A   Clear
10:54 AM 77.0 °F - 60.1 °F 56% 30.20 in 10.0 mi SSW 4.6 mph - N/A   Mostly Cloudy
11:54 AM 80.1 °F 81.2 °F 62.1 °F 54% 30.19 in 10.0 mi Calm Calm - N/A   Partly Cloudy
12:54 PM 81.0 °F 81.9 °F 62.1 °F 52% 30.18 in 10.0 mi NW 5.8 mph - N/A   Mostly Cloudy
1:54 PM 82.0 °F 83.1 °F 63.0 °F 52% 30.16 in 10.0 mi SSW 4.6 mph - N/A   Partly Cloudy
2:54 PM 82.9 °F 83.7 °F 62.1 °F 49% 30.15 in 10.0 mi Variable 6.9 mph - N/A   Scattered Clouds
3:54 PM 84.0 °F 84.5 °F 62.1 °F 47% 30.14 in 10.0 mi Calm Calm - N/A   Mostly Cloudy
4:54 PM 82.9 °F 83.2 °F 60.1 °F 46% 30.12 in 10.0 mi SSW 8.1 mph - N/A   Clear
5:54 PM 82.0 °F 82.7 °F 61.0 °F 49% 30.10 in 10.0 mi South 6.9 mph - N/A   Clear
6:54 PM 80.1 °F 80.7 °F 59.0 °F 48% 30.10 in 10.0 mi Variable 4.6 mph - N/A   Clear
7:54 PM 77.0 °F - 60.1 °F 56% 30.10 in 10.0 mi South 4.6 mph - N/A   Scattered Clouds
8:54 PM 75.9 °F - 61.0 °F 60% 30.09 in 7.0 mi Variable 5.8 mph - N/A   Partly Cloudy
9:54 PM 73.9 °F - 61.0 °F 64% 30.09 in 10.0 mi Variable 3.5 mph - N/A   Clear
10:54 PM 75.0 °F - 61.0 °F 62% 30.09 in 10.0 mi Variable 3.5 mph - N/A   Clear
11:54 PM 75.0 °F - 61.0 °F 62% 30.08 in 10.0 mi SSW 8.1 mph - N/A   Clear